Flag for Pakistan Weather past 2 weeks in Sukkur, Sindh, Pakistan

Now
93 °F

Broken clouds.


Feels Like: 113 °F
Forecast: 84 / 93 °F
Wind: 14 mph from North

Location: Sukkur

Current Time: Jul 28, 2015 at 1:35:40 PM

Latest Report: Jul 28, 2015 at 1:00 PM


Visibility: 4 mi

Pressure: 29.36 "Hg

Humidity: 67%

Dew point: 81 °F

Location of SukkurLocation

Historic Weather in Sukkur — Graph

°F

Sukkur temperature yesterday

Maximum temperature yesterday: 91 °F (at 3:00 PM)
Minimum temperature yesterday: 79 °F (at 12:00 AM)
Average temperature yesterday: 83 °F

Past Weeks' High & Low Weather Summary

 TemperatureHumidityPressure
High113 °F (Jul 16, 5:00 PM)100% (Jul 26, 11:00 AM)29.56 "Hg (Jul 26, 11:00 AM)
Low77 °F (Jul 26, 11:00 AM)31% (Jul 16, 5:00 PM)29.24 "Hg (Jul 15, 5:00 PM)
Average94 °F65%29.42 "Hg
* Reported Jul 13 12:00 Noon — Jul 28 12:00 Noon, Sukkur, Weather by CustomWeather, © 2015

Note: Actual official high and low records may vary slightly from our data, if they occured in-between our weather recording intervals... More about our weather records

Advertising

Sukkur weather history for previous 24 hours

 ConditionsComfort  
Time TempWeatherWind HumidityBarometerVisibility
12:00 PM
Tue, Jul 28
91 °FScattered clouds.14 mph75%29.36 "Hg4 mi
11:00 AM90 °FPartly sunny.14 mph71%29.39 "Hg3 mi
10:00 AM90 °FPartly sunny.12 mph71%29.39 "Hg3 mi
9:00 AM88 °FScattered clouds.12 mph75%29.39 "Hg3 mi
8:00 AM86 °FScattered clouds.9 mph79%29.36 "Hg3 mi
7:00 AM81 °FScattered clouds.7 mph84%29.36 "Hg2 mi
6:30 AM79 °FThunderstorms. Broken clouds.7 mph89%29.33 "Hg2 mi
6:00 AM79 °FThunderstorms. Broken clouds.7 mph89%29.33 "Hg1 mi
3:00 AM81 °FThundershowers. Passing clouds.12 mph84%29.39 "Hg2 mi
1:00 AM82 °FThundershowers. Passing clouds.12 mph84%29.39 "Hg2 mi
12:00 AM82 °FPassing clouds.12 mph84%29.39 "Hg2 mi
11:30 PM
Mon, Jul 27
82 °FPassing clouds.12 mph84%29.39 "Hg2 mi
11:00 PM84 °FPassing clouds.12 mph84%29.39 "Hg2 mi
10:00 PM84 °FPassing clouds.12 mph84%29.36 "Hg2 mi
9:00 PM84 °FPassing clouds.5 mph84%29.36 "Hg2 mi
8:00 PM84 °FPassing clouds.5 mph84%29.36 "Hg2 mi
7:00 PM84 °FScattered clouds.9 mph84%29.36 "Hg3 mi
6:00 PM84 °FScattered clouds.5 mph84%29.36 "Hg3 mi
5:00 PM84 °FScattered clouds.12 mph84%29.33 "Hg3 mi
4:00 PM86 °FThunderstorms. Broken clouds.12 mph79%29.36 "Hg1 mi
3:00 PM91 °FBroken clouds.12 mph71%29.36 "Hg4 mi
2:00 PM90 °FBroken clouds.12 mph75%29.36 "Hg4 mi
1:00 PM88 °FBroken clouds.12 mph79%29.39 "Hg4 mi
Weather by CustomWeather, © 2015

See weather overviewHow to use our weather pages